Tracking 22836 objects as of 18-Apr-2021
HD Live streaming from Space Station
objects crossing your sky now

DELTA 1 DEB

Track DELTA 1 DEB now!
10-day predictions


NORAD ID: 39096
Int'l Code: 1973-086HJ
Perigee: 1,467.6 km
Apogee: 1,585.2 km
Inclination: 101.3 °
Period: 116.4 minutes
Semi major axis: 7897 km
RCS: 0.0093 m2 (small)
Launch date: November 6, 1973
Source: United States (US)
Launch site: AIR FORCE WESTERN TEST RANGE (AFWTR)

Note: This is SATELLITE DEBRIS
aabbcc
Your satellite tracking list
Your tracking list is empty




NASA's NSSDC Master Catalog

Two Line Element Set (TLE):
1 39096U 73086HJ  21104.34980531  .00000088  00000-0  98918-3 0  9996
2 39096 101.2904 127.6426 0074485   4.3704 355.7996 12.37024018323673
Source of the keplerian elements: AFSPC